Showing default

LES 2, 1360

Orbit data source: Space-Track

LES 2, 1360 is a payload satellite owned by USAF SSD (US) in HEO that was launched on Thu, 06 May 1965 UTC via a TITAN IIIA launch vehicle from the Air Force Eastern Test Range (AFETR). Payloads include a variety of satellites, spacecraft, and rockets equipped with specific instruments for various scientific and technological missions. These include communications satellites like Starlink; space stations such as the ISS; scientific satellites like the Hubble; Earth observation satellites from companies like Planet Labs, Umbra, and HawkEye 360; GPS; miniature CubeSats for education and research; and military/defense satellites.

Loading next visibility...
LES 2 details
Identifier
1360, 1965-034B
Orbit
HEO
Last TLE update3 days ago
Origin
Flag of USUSAF SSD (US)
ManufacturerMIT-LL
MissionDefense Communications
Bus & MotorLES, STAR 13A
Mass37 kg wet, 37 kg dry
Launch date (UTC)
1965-05-06 (60 years ago)
Launch vehicle
TITAN IIIA
Launch site
Air Force Eastern Test Range (AFETR)
Object type
Payload
Rocket body
Debris
Shape & HBRPoly, 0.6 m
Radar Cross Section0.411 m², Medium (>0.1 m² and < 1m²)

Expand to show TLE details & history

TLE from 3 days ago
0 LES 2
1 01360U 65034B   25020.26835805 -.00000061  00000-0  00000-0 0  9992
2 01360  32.1991 318.8473 3971244 320.3711  16.4594  4.64833926 14018
Epoch: 2025-01-20T06:26Z
Definitive object data (Epoch: 2025-01-20T06:26:26.135Z)
Latitude-0.00002°
Longitude102.34405°
Altitude3,400.419 km
Speed7.433 km/s
True Right ascension21h 15m 22s
True Declination0° 00' 00"
Sunlit
Object was in daylight at TLE epoch
Visualization TLE readout
Latitude14.86917°
Longitude-104.45503°
Altitude14,680.111 km
Speed3.403 km/s
Apparent Right ascension06h 47m 47s
Apparent Declination3° 14' 07"
Sunlit
Object is in full shadow
Visualization observer readout
Local Sidereal Time15:40:42
Azimuth303.534° NW
Elevation-29.229°
Doppler factor1
Orbital elements
Apogee altitude14,813.625 km
Perigee altitude2,766.357 km
Semi-major axis15,168.128 km
Eccentricity0.3971244
Inclination32.1991°
RAAN318.8473°
Arg. of periapsis320.3711°
True anomaly39.68828°
Mean anomaly16.4594°
Eccentric anomaly26.67366°
Mean motion1.16184 °/min
BSTARUnknown
Orbital period309.85 mins
Loading maneuver chart data...
Loading historical data...
Loading historical data...
Loading historical data...
Loading historical data...
Loading historical data...
Loading historical data...
Loading historical data...
Other satellites on launch #34 in the year 1965 (1965-05-06 UTC)

LES 2 Visibility forecast

Observer location: undefined°, undefined

Span
Click to sort rows by Start time (UTC) header in descending order
Start Az.
Max El. time (UTC)
Max El. Az.
Max El.
End time (UTC)
End Az.
117 mins2025-01-23 22:16:28.383Z221.068° SW2025-01-23 22:39:28.383Z146.732° SSE40.812°2025-01-24 00:13:28.383Z82.11° E
195 mins2025-01-24 03:55:28.383Z276.806° WNW2025-01-24 05:08:28.383Z215.058° SW42.556°2025-01-24 07:10:28.383Z146.748° SSE
|